Flag for Germany Weather past 2 weeks in Tuttlingen, Baden-Württemberg, Germany

Now
32 °F

Snow. Low clouds.


Feels Like: 27 °F
Forecast: 24 / 33 °F
Wind: 5 mph from West

Location: Konstanz

Current Time: Jan 26, 2015 at 11:39:55 PM

Latest Report: Jan 26, 2015 at 10:00 PM


Visibility: 1 mi

Pressure: 30.21 "Hg

Humidity: 97%

Dew point: 31 °F

Location of TuttlingenLocation

Historic Weather in Tuttlingen — Graph

°F

Tuttlingen temperature yesterday

Maximum temperature yesterday: 35 °F (at 2:00 PM)
Minimum temperature yesterday: 30 °F (at 8:00 AM)
Average temperature yesterday: 32 °F

Past Weeks' High & Low Weather Summary

 TemperatureHumidityPressure
High54 °F (Jan 13, 4:00 PM)99% (Jan 18, 9:00 AM)30.49 "Hg (Jan 18, 9:00 AM)
Low29 °F (Jan 13, 9:00 AM)28% (Jan 13, 3:00 PM)29.70 "Hg (Jan 16, 6:00 PM)
Average36 °F84%30.08 "Hg
* Reported Jan 11 10:00 PM — Jan 26 10:00 PM, Tuttlingen, Weather by CustomWeather, © 2014

Note: Actual official high and low records may vary slightly from our data, if they occured in-between our weather recording intervals... More about our weather records

Advertising

Tuttlingen weather history for previous 24 hours

 ConditionsComfort  
Time TempWeatherWind HumidityBarometerVisibility
10:00 PM
Jan 26
32 °FSnow. Low clouds.5 mph97%30.21 "Hg1 mi
9:00 PM31 °FLight snow. Low clouds.3 mph96%30.22 "Hg1 mi
8:00 PM31 °FSnow. Passing clouds.2 mph97%30.24 "Hg1 mi
7:00 PM31 °FSnow. Low clouds.1 mph96%30.26 "Hg1 mi
6:00 PM30 °FLight snow. Passing clouds.2 mph93%30.28 "Hg1 mi
5:00 PM31 °FLight snow. Overcast.2 mph88%30.29 "Hg4 mi
4:00 PM31 °FLight snow. Low clouds.3 mph86%30.30 "Hg4 mi
3:00 PM31 °FLight snow. Ice fog.2 mph84%30.31 "Hg2 mi
2:00 PM32 °FSnow flurries. Overcast.5 mph77%30.33 "Hg11 mi
1:00 PM32 °FLight snow. Overcast.3 mph79%30.35 "Hg9 mi
12:00 PM32 °FSnow flurries. Overcast.2 mph79%30.38 "Hg9 mi
11:00 AM32 °FSnow flurries. Overcast.3 mph81%30.39 "Hg10 mi
10:00 AM32 °FOvercast.2 mph78%30.40 "Hg12 mi
9:00 AM31 °FOvercast.2 mph85%30.41 "Hg7 mi
8:00 AM31 °FOvercast.2 mph90%30.41 "Hg7 mi
7:00 AM31 °FOvercast.1 mph86%30.42 "Hg7 mi
6:00 AM31 °FOvercast.2 mph87%30.41 "Hg7 mi
5:00 AM31 °FLow clouds.1 mph89%30.42 "Hg9 mi
4:00 AM31 °FOvercast.1 mph91%30.42 "Hg7 mi
3:00 AM32 °FOvercast.1 mph93%30.42 "Hg7 mi
2:00 AM32 °FOvercast.1 mph92%30.43 "Hg7 mi
1:00 AM32 °FOvercast.1 mph88%30.43 "Hg9 mi
12:00 AM32 °FOvercast.1 mph88%30.45 "Hg11 mi
11:00 PM
Jan 25
32 °FOvercast.1 mph86%30.45 "Hg12 mi
Weather by CustomWeather, © 2014

See weather overviewHow to use our weather pages